Location: Quedlinburg
(51.7921°N, 11.1414°E)
Time: 05:31:39
(UTC+02:00)

STRAND 1 - Pass Details

Date: 16 March 2026
Orbit: 761 x 775 km, 98.4° (Epoch: 16 April)

Event Time Altitude Azimuth Distance (km) Brightness Sun altitude
Rises 19:07:17 0° 10° (N) 3,244 ? -7.9°
Reaches altitude 10° 19:09:40 10° 5° (N) 2,312 ? -8.2°
Maximum altitude 19:14:29 45° 294° (WNW) 1,042 ? -9.0°
Drops below altitude 10° 19:19:16 10° 223° (SW) 2,293 ? -9.7°
Sets 19:21:38 0° 217° (SW) 3,214 ? -10.1°
